This demonstration page uses our WeatherBlox Daily Observations layout. Learn more.

Left ArrowRight Arrow

44.8408, -93.29828

Hourly Observations for August 27, 2017

Temp ( °F °C ) Dew Point ( °F °C ) Humidity (%) Winds ( mph kmh ) Pressure ( in mb ) Visibility ( mi km ) Precip ( " mm )
12:53 am 00:53 Mostly Cloudy with Mist and Fog 66 18.9 66 18.9 100 100 WSW 6 9 30.00 1016 4 6 0.00 0.00
1:07 am 01:07 Partly Cloudy with Mist and Fog 66 18.9 66 18.9 100 100 WSW 5 7 29.97 1015 4 6 0.00 0.00
1:53 am 01:53 Partly Cloudy with Mist and Fog 65 18.3 65 18.3 100 100 W 5 7 30.01 1016 3 5 0.00 0.00
2:23 am 02:23 Mostly Cloudy with Mist and Fog 65 18.3 65 18.3 100 100 W 6 9 29.97 1015 4 6 0.00 0.00
2:44 am 02:44 Mostly Cloudy with Mist and Fog 65 18.3 65 18.3 100 100 W 7 11 29.97 1015 6 10 0.00 0.00
2:53 am 02:53 Cloudy 65 18.3 65 18.3 100 100 W 7 11 30.01 1016 7 11 0.00 0.00
3:53 am 03:53 Mostly Clear 63 17.2 63 17.2 100 100 WNW 6 9 29.99 1016 9 14 0.00 0.00
4:53 am 04:53 Mostly Clear 63 17.2 63 17.2 100 100 WNW 7 11 29.99 1016 10 16 0.00 0.00
5:06 am 05:06 Mostly Cloudy 63 17.2 63 17.2 100 100 WNW 6 9 29.97 1015 10 16 0.00 0.00
5:53 am 05:53 Cloudy 64 17.8 63 17.2 96 96 NNW 9 15 29.99 1016 9 14 0.00 0.00
6:44 am 06:44 Cloudy 64 17.8 64 17.8 100 100 WSW 6 9 30.00 1016 9 14 0.00 0.00
6:53 am 06:53 Cloudy 64 17.8 64 17.8 100 100 WSW 5 7 30.02 1017 9 14 0.00 0.00
7:53 am 07:53 Cloudy 64 17.8 63 17.2 96 96 W 7 11 30.03 1017 10 16 0.00 0.00
8:10 am 08:10 Cloudy 64 17.8 63 17.2 96 96 W 7 11 30.00 1016 10 16 0.00 0.00
8:44 am 08:44 Cloudy 65 18.3 63 17.2 93 93 W 9 15 30.00 1016 10 16 0.00 0.00
8:53 am 08:53 Cloudy 65 18.3 63 17.2 93 93 WNW 10 17 30.03 1017 10 16 0.00 0.00
9:22 am 09:22 Cloudy 66 18.9 63 17.2 90 90 WNW 10 17 30.00 1016 10 16 0.00 0.00
9:53 am 09:53 Cloudy 66 18.9 63 17.2 90 90 NW 13 20 30.02 1017 10 16 0.00 0.00
10:03 am 10:03 Cloudy 67 19.4 63 17.2 87 87 NW 8 13 30.00 1016 10 16 0.00 0.00
10:53 am 10:53 Cloudy 68 20 62 16.7 81 81 WNW 8 13 30.02 1017 10 16 0.00 0.00
11:03 am 11:03 Cloudy 68 20 61 16.1 78 78 NW 9 15 30.00 1016 10 16 0.00 0.00
11:41 am 11:41 Cloudy 69 20.6 61 16.1 76 76 NW 10 17 30.00 1016 10 16 0.00 0.00
11:53 am 11:53 Mostly Cloudy 71 21.7 61 16.1 71 71 NW 12 19 30.02 1017 10 16 0.00 0.00
12:53 pm 12:53 Mostly Cloudy 72 22.2 62 16.7 71 71 NW 9 15 30.01 1016 10 16 0.00 0.00
1:53 pm 13:53 Cloudy 73 22.8 62 16.7 69 69 NW 12 19 30.01 1016 10 16 0.00 0.00
2:53 pm 14:53 Cloudy 72 22.2 60 15.6 66 66 NNW 10 17 30.01 1016 10 16 0.00 0.00
3:53 pm 15:53 Mostly Cloudy 70 21.1 64 17.8 82 82 NW 9 15 30.00 1016 10 16 0.07 1.78
4:53 pm 16:53 Cloudy with Light Rain 69 20.6 63 17.2 81 81 NNW 24 39 30.01 1016 10 16 0.00 0.03
5:30 pm 17:30 Cloudy with Nearby Thunderstorms 67 19.4 64 17.8 91 91 NNW 6 9 29.97 1015 10 16 0.17 4.32
5:49 pm 17:49 Cloudy 68 20 64 18 88 88 NW 7 11 30.00 1016 10 16 0.17 4.32
5:53 pm 17:53 Cloudy 68 20 64 17.8 87 87 NW 7 11 30.01 1016 10 16 0.17 4.32
6:53 pm 18:53 Mostly Cloudy 67 19.4 63 17.2 87 87 N 7 11 30.02 1017 10 16 0.00 0.03
7:53 pm 19:53 Mostly Cloudy 66 18.9 62 16.7 87 87 NNW 8 13 30.02 1017 10 16 0.00 0.00
8:53 pm 20:53 Cloudy 66 18.9 62 16.7 87 87 NNW 3 6 30.04 1017 10 16 0.00 0.00
9:53 pm 21:53 Cloudy 65 18.3 61 16.1 87 87 N 5 7 30.04 1017 10 16 0.00 0.00
10:53 pm 22:53 Mostly Cloudy 65 18.3 60 15.6 84 84 NNW 8 13 30.04 1017 10 16 0.00 0.00
11:53 pm 23:53 Cloudy 64 17.8 59 15 84 84 NNW 9 15 30.04 1017 10 16 0.00 0.00

Powered by AerisWeather